Location: Chatou
(48.8898°N, 2.1586°E)
Time: 17:38:52
(UTC+00:00)

Cosmos 1763 Rocket - Pass Details

Date: 03 February 2023
Orbit: 733 x 778 km, 74.0° (Epoch: 29 March)

Event Time Altitude Azimuth Distance (km) Brightness Sun altitude
Rises 18:16:41 0° 334° (NNW) 3,228 7.0 -14.2°
Reaches altitude 10° 18:19:05 10° 332° (NNW) 2,291 6.2 -14.6°
Maximum altitude 18:24:13 66° 251° (WSW) 816 3.9 -15.4°
Drops below altitude 10° 18:29:16 10° 170° (S) 2,247 5.9 -16.2°
Sets 18:31:36 0° 168° (SSE) 3,160 6.6 -16.6°
